Tracking 19250 objects as of 23-Sep-2018
HD Live streaming from Space Station
objects crossing your sky now

FENGYUN 1C DEB

Track FENGYUN 1C DEB now!
10-day predictions


NORAD ID: 32433
Int'l Code: 1999-025DAV
Perigee: 601.2 km
Apogee: 999.8 km
Inclination: 98.2 °
Period: 100.7 minutes
Semi major axis: 7171 km
RCS: 0.0139 m2 (small)
Launch date: May 10, 1999
Source: People's Republic of China (PRC)
Launch site: Taiyaun Space Center, China (TSC)

Note: This is SATELLITE DEBRIS
aabbcc
Your satellite tracking list
Your tracking list is empty




NASA's NSSDC Master Catalog

Two Line Element Set (TLE):
1 32433U 99025DAV 18242.32915751 +.00001657 +00000-0 +44022-3 0  9994
2 32433 098.2310 278.5003 0277908 297.7169 059.6075 14.29515902553484
Source of the keplerian elements: AFSPC